Location: Newark
(54.6833°N, 25.2833°E)
Time: 06:07:36
(UTC+00:00)

Altair - Pass Details

Date: 15 November 2019
Orbit: 1502 x 1682 km, 47.2° (Epoch: 14 December)

Event Time Altitude Azimuth Distance (km) Brightness Sun altitude
Rises 03:41:20 0° 238° (WSW) 4,630 - -18.1°
Exits shadow 03:44:21 10° 234° (SW) 3,683 9.1 -17.6°
Reaches altitude 10° 03:44:27 10° 233° (SW) 3,651 9.1 -17.6°
Maximum altitude 03:53:06 49° 163° (SSE) 1,892 8.1 -16.4°
Drops below altitude 10° 04:01:56 10° 93° (E) 3,730 10.9 -15.1°
Sets 04:05:09 0° 88° (E) 4,737 11.7 -14.7°
